PLK6001 UHPP-UHWW

Flight info

Callsign PLK6001
Flight time 3h 32m
Altitude 32000
Route SAMIK4L SAMIK T577 UB P176 NAMUL P175 AKOLA T575 SUMOG/K0833F340 T575 TD B355 BG/K0720F220 G714 DAGES DAGES2M
Aircraft A321/M-SDE3FGHIRWY/LB1

Departure

Time 2026-04-26 06:06
Airport Yelizovo Airport (UHPP)

Arrival

Time 2026-04-26 09:39
Airport Vladivostok International Airport (UHWW)
Time Latitude Longitude Altitude Speed Heading
2026-04-26 05:30 53.18139 158.43495 120 ft 0 kts 275°
2026-04-26 05:55 53.18138 158.43518 123 ft 4 kts 278°
2026-04-26 05:56 53.18134 158.43562 123 ft 4 kts 282°
2026-04-26 05:56 53.18127 158.43605 123 ft 3 kts 289°
2026-04-26 05:56 53.18126 158.43606 123 ft 0 kts 290°
2026-04-26 05:58 53.18127 158.43605 120 ft 1 kts 298°
2026-04-26 05:59 53.18134 158.43607 119 ft 2 kts 360°
2026-04-26 05:59 53.18151 158.43606 123 ft 2 kts 358°
2026-04-26 05:59 53.18196 158.43605 120 ft 9 kts 359°
2026-04-26 05:59 53.18241 158.43637 119 ft 6 kts 56°
2026-04-26 06:00 53.18252 158.43694 129 ft 5 kts 73°
2026-04-26 06:00 53.18277 158.43812 123 ft 19 kts 69°
2026-04-26 06:00 53.18310 158.44065 126 ft 23 kts 115°
2026-04-26 06:00 53.18188 158.44198 121 ft 21 kts 158°
2026-04-26 06:01 53.18056 158.44288 121 ft 20 kts 156°
2026-04-26 06:01 53.17924 158.44380 123 ft 21 kts 157°
2026-04-26 06:01 53.17793 158.44471 122 ft 20 kts 157°
2026-04-26 06:01 53.17664 158.44559 125 ft 22 kts 158°
2026-04-26 06:02 53.17484 158.44684 125 ft 34 kts 158°
2026-04-26 06:02 53.17257 158.44841 127 ft 35 kts 157°
2026-04-26 06:02 53.17035 158.44996 124 ft 34 kts 158°
2026-04-26 06:02 53.16824 158.45140 127 ft 31 kts 157°
2026-04-26 06:03 53.16628 158.45276 125 ft 30 kts 158°
2026-04-26 06:03 53.16438 158.45404 124 ft 29 kts 158°
2026-04-26 06:03 53.16259 158.45532 121 ft 27 kts 156°
2026-04-26 06:03 53.16095 158.45645 123 ft 25 kts 158°
2026-04-26 06:04 53.15946 158.45748 128 ft 22 kts 157°
2026-04-26 06:04 53.15810 158.45842 127 ft 20 kts 157°
2026-04-26 06:04 53.15683 158.45915 122 ft 19 kts 179°
2026-04-26 06:04 53.15561 158.45925 123 ft 14 kts 140°
2026-04-26 06:05 53.15594 158.45989 125 ft 9 kts 354°
2026-04-26 06:05 53.15671 158.45942 126 ft 24 kts 338°
2026-04-26 06:05 53.16057 158.45670 126 ft 95 kts 337°
2026-04-26 06:05 53.16849 158.45120 127 ft 149 kts 338°
2026-04-26 06:06 53.17935 158.44373 236 ft 182 kts 337°
2026-04-26 06:06 53.19065 158.43608 1038 ft 172 kts 335°
2026-04-26 06:06 53.20160 158.42805 1728 ft 172 kts 333°
2026-04-26 06:06 53.21246 158.41974 2107 ft 180 kts 334°
2026-04-26 06:07 53.22470 158.41092 2199 ft 202 kts 336°
2026-04-26 06:07 53.23843 158.40173 2317 ft 224 kts 338°
2026-04-26 06:07 53.25373 158.39154 2522 ft 246 kts 337°
2026-04-26 06:07 53.26984 158.38051 3122 ft 253 kts 337°
2026-04-26 06:08 53.28616 158.36929 3790 ft 256 kts 336°
2026-04-26 06:08 53.30267 158.35786 4478 ft 258 kts 337°
2026-04-26 06:08 53.31934 158.34628 5189 ft 260 kts 336°
2026-04-26 06:08 53.33589 158.33473 5866 ft 262 kts 336°
2026-04-26 06:09 53.35296 158.32261 6552 ft 264 kts 332°
2026-04-26 06:09 53.36649 158.30310 7151 ft 264 kts 299°
2026-04-26 06:09 53.37112 158.27373 7741 ft 266 kts 265°
2026-04-26 06:09 53.36501 158.24468 8315 ft 270 kts 237°
2026-04-26 06:10 53.35321 158.21995 8905 ft 274 kts 228°
2026-04-26 06:10 53.33982 158.19710 9494 ft 276 kts 226°
2026-04-26 06:10 53.32615 158.17429 10069 ft 281 kts 227°
2026-04-26 06:10 53.31216 158.14990 10211 ft 300 kts 229°
2026-04-26 06:11 53.29766 158.12318 10341 ft 320 kts 231°
2026-04-26 06:11 53.28760 158.10394 10435 ft 332 kts 231°
2026-04-26 06:11 53.26743 158.06417 10947 ft 342 kts 232°
2026-04-26 06:11 53.25213 158.03342 11495 ft 345 kts 233°
2026-04-26 06:12 53.23677 158.00241 12055 ft 348 kts 233°
2026-04-26 06:12 53.22650 157.98171 12429 ft 350 kts 233°
2026-04-26 06:12 53.21092 157.95034 12989 ft 353 kts 233°
2026-04-26 06:12 53.19518 157.91868 13557 ft 355 kts 233°
2026-04-26 06:13 53.17935 157.88690 14075 ft 358 kts 233°
2026-04-26 06:13 53.16335 157.85491 14594 ft 361 kts 233°
2026-04-26 06:13 53.14722 157.82281 15097 ft 363 kts 233°
2026-04-26 06:13 53.13096 157.79047 15578 ft 365 kts 233°
2026-04-26 06:14 53.11458 157.75793 16071 ft 367 kts 233°
2026-04-26 06:14 53.09809 157.72527 16560 ft 370 kts 233°
2026-04-26 06:14 53.08148 157.69243 17031 ft 372 kts 233°
2026-04-26 06:14 53.06477 157.65931 17480 ft 375 kts 233°
2026-04-26 06:15 53.04896 157.62480 17901 ft 375 kts 241°
2026-04-26 06:15 53.03690 157.58657 18325 ft 374 kts 250°
2026-04-26 06:15 53.02885 157.54558 18763 ft 373 kts 258°
2026-04-26 06:15 53.02222 157.50382 19210 ft 375 kts 258°
2026-04-26 06:16 53.01549 157.46182 19638 ft 377 kts 257°
2026-04-26 06:16 53.00869 157.41970 20039 ft 379 kts 258°
2026-04-26 06:16 53.00182 157.37734 20439 ft 381 kts 257°
2026-04-26 06:16 52.99493 157.33482 20837 ft 383 kts 258°
2026-04-26 06:17 52.98799 157.29205 21227 ft 385 kts 258°
2026-04-26 06:17 52.98098 157.24914 21602 ft 386 kts 257°
2026-04-26 06:17 52.97402 157.20654 21952 ft 389 kts 258°
2026-04-26 06:17 52.96696 157.16326 22311 ft 390 kts 258°
2026-04-26 06:18 52.95984 157.11974 22672 ft 392 kts 258°
2026-04-26 06:18 52.95267 157.07604 23015 ft 393 kts 258°
2026-04-26 06:18 52.94546 157.03223 23351 ft 395 kts 258°
2026-04-26 06:18 52.93807 156.98762 23677 ft 397 kts 257°
2026-04-26 06:19 52.93072 156.94343 24005 ft 399 kts 258°
2026-04-26 06:19 52.92343 156.89966 24323 ft 400 kts 258°
2026-04-26 06:19 52.91601 156.85518 24633 ft 401 kts 258°
2026-04-26 06:19 52.90855 156.81047 24928 ft 403 kts 258°
2026-04-26 06:20 52.90095 156.76496 25228 ft 405 kts 258°
2026-04-26 06:20 52.89350 156.72055 25513 ft 407 kts 258°
2026-04-26 06:20 52.88577 156.67471 25820 ft 408 kts 258°
2026-04-26 06:20 52.87820 156.62997 26090 ft 410 kts 258°
2026-04-26 06:21 52.87052 156.58446 26354 ft 411 kts 258°
2026-04-26 06:21 52.86280 156.53881 26618 ft 413 kts 258°
2026-04-26 06:21 52.85504 156.49299 26881 ft 414 kts 258°
2026-04-26 06:21 52.84722 156.44708 27131 ft 415 kts 258°
2026-04-26 06:22 52.83936 156.40110 27384 ft 416 kts 258°
2026-04-26 06:22 52.83143 156.35495 27610 ft 418 kts 258°
2026-04-26 06:22 52.82347 156.30872 27847 ft 419 kts 258°
2026-04-26 06:22 52.81603 156.26213 28061 ft 418 kts 263°
2026-04-26 06:23 52.81150 156.21473 28310 ft 418 kts 265°
2026-04-26 06:23 52.80714 156.16717 28557 ft 419 kts 265°
2026-04-26 06:23 52.80268 156.11964 28821 ft 419 kts 264°
2026-04-26 06:23 52.79817 156.07214 29138 ft 417 kts 264°
2026-04-26 06:24 52.79361 156.02497 29447 ft 416 kts 264°
2026-04-26 06:24 52.78901 155.97786 29736 ft 415 kts 264°
2026-04-26 06:24 52.78442 155.93086 30001 ft 414 kts 264°
2026-04-26 06:24 52.77983 155.88403 30285 ft 413 kts 264°
2026-04-26 06:25 52.77525 155.83726 30542 ft 412 kts 264°
2026-04-26 06:25 52.77070 155.79051 30754 ft 413 kts 264°
2026-04-26 06:25 52.76613 155.74366 30964 ft 413 kts 264°
2026-04-26 06:25 52.76146 155.69680 31153 ft 414 kts 264°
2026-04-26 06:26 52.75674 155.64992 31332 ft 415 kts 264°
2026-04-26 06:26 52.75198 155.60286 31511 ft 416 kts 264°
2026-04-26 06:26 52.74722 155.55583 31702 ft 416 kts 264°
2026-04-26 06:26 52.74244 155.50867 31845 ft 417 kts 264°
2026-04-26 06:27 52.73766 155.46177 31878 ft 413 kts 264°
2026-04-26 06:27 52.72812 155.36910 31879 ft 412 kts 264°
2026-04-26 06:28 52.71853 155.27608 31878 ft 411 kts 264°
2026-04-26 06:28 52.70884 155.18309 31878 ft 411 kts 264°
2026-04-26 06:29 52.69903 155.09006 31879 ft 412 kts 264°
2026-04-26 06:29 52.68924 154.99698 31878 ft 412 kts 264°
2026-04-26 06:30 52.67934 154.90393 31879 ft 412 kts 264°
2026-04-26 06:30 52.66935 154.81096 31883 ft 412 kts 264°
2026-04-26 06:31 52.65931 154.71807 31888 ft 412 kts 264°
2026-04-26 06:31 52.64916 154.62539 31889 ft 411 kts 263°
2026-04-26 06:32 52.63773 154.53319 31889 ft 414 kts 256°
2026-04-26 06:32 52.61413 154.44601 31890 ft 419 kts 249°
2026-04-26 06:33 52.58856 154.36004 31891 ft 418 kts 249°
2026-04-26 06:33 52.56308 154.27417 31893 ft 417 kts 249°
2026-04-26 06:34 52.53761 154.18853 31894 ft 417 kts 249°
2026-04-26 06:34 52.51206 154.10308 31894 ft 416 kts 249°
2026-04-26 06:35 52.48645 154.01789 31895 ft 416 kts 249°
2026-04-26 06:35 52.46071 153.93289 31896 ft 416 kts 249°
2026-04-26 06:36 52.43506 153.84807 31902 ft 415 kts 249°
2026-04-26 06:36 52.40941 153.76343 31903 ft 415 kts 249°
2026-04-26 06:37 52.38367 153.67898 31904 ft 414 kts 249°
2026-04-26 06:37 52.35788 153.59471 31898 ft 414 kts 249°
2026-04-26 06:38 52.33200 153.51058 31891 ft 414 kts 249°
2026-04-26 06:38 52.30606 153.42650 31889 ft 414 kts 249°
2026-04-26 06:39 52.28013 153.34253 31886 ft 415 kts 248°
2026-04-26 06:39 52.25405 153.25848 31886 ft 415 kts 248°
2026-04-26 06:40 52.22792 153.17459 31887 ft 415 kts 248°
2026-04-26 06:40 52.20177 153.09082 31889 ft 415 kts 248°
2026-04-26 06:41 52.17557 153.00718 31894 ft 414 kts 248°
2026-04-26 06:41 52.14929 152.92373 31895 ft 414 kts 248°
2026-04-26 06:42 52.12319 152.84090 31900 ft 414 kts 248°
2026-04-26 06:42 52.09672 152.75717 31910 ft 413 kts 248°
2026-04-26 06:43 52.07037 152.67417 31907 ft 413 kts 248°
2026-04-26 06:43 52.04412 152.59206 31918 ft 412 kts 248°
2026-04-26 06:44 52.01772 152.50964 31915 ft 411 kts 248°
2026-04-26 06:44 51.99133 152.42746 31916 ft 410 kts 248°
2026-04-26 06:45 51.96471 152.34494 31925 ft 409 kts 248°
2026-04-26 06:45 51.93858 152.26388 31926 ft 408 kts 248°
2026-04-26 06:46 51.91226 152.18256 31925 ft 407 kts 248°
2026-04-26 06:46 51.88585 152.10145 31921 ft 407 kts 248°
2026-04-26 06:47 51.85923 152.01989 31921 ft 408 kts 248°
2026-04-26 06:47 51.83274 151.93885 31921 ft 408 kts 248°
2026-04-26 06:48 51.80639 151.85845 31918 ft 408 kts 248°
2026-04-26 06:48 51.77980 151.77762 31923 ft 407 kts 248°
2026-04-26 06:49 51.75306 151.69699 31922 ft 407 kts 248°
2026-04-26 06:49 51.72630 151.61657 31913 ft 407 kts 248°
2026-04-26 06:50 51.69957 151.53621 31918 ft 407 kts 248°
2026-04-26 06:50 51.67279 151.45602 31922 ft 406 kts 248°
2026-04-26 06:51 51.64596 151.37604 31921 ft 406 kts 248°
2026-04-26 06:51 51.60581 151.25641 31924 ft 404 kts 248°
2026-04-26 06:52 51.57895 151.17700 31934 ft 404 kts 248°
2026-04-26 06:52 51.55207 151.09769 31934 ft 404 kts 248°
2026-04-26 06:53 51.52514 151.01849 31932 ft 404 kts 248°
2026-04-26 06:53 51.49815 150.93941 31931 ft 403 kts 248°
2026-04-26 06:54 51.47124 150.86056 31938 ft 403 kts 248°
2026-04-26 06:54 51.44437 150.78185 31937 ft 402 kts 248°
2026-04-26 06:55 51.41734 150.70336 31923 ft 402 kts 247°
2026-04-26 06:55 51.39024 150.62499 31926 ft 402 kts 247°
2026-04-26 06:56 51.36312 150.54668 31921 ft 403 kts 247°
2026-04-26 06:56 51.33591 150.46851 31916 ft 402 kts 247°
2026-04-26 06:57 51.30873 150.39047 31918 ft 401 kts 247°
2026-04-26 06:57 51.28615 150.32573 31916 ft 401 kts 247°
2026-04-26 06:58 51.25433 150.23476 31920 ft 401 kts 247°
2026-04-26 06:58 51.23165 150.17025 31915 ft 401 kts 247°
2026-04-26 06:59 51.20427 150.09276 31917 ft 401 kts 247°
2026-04-26 06:59 51.17705 150.01537 31921 ft 398 kts 250°
2026-04-26 07:00 51.15807 149.93387 31922 ft 391 kts 257°
2026-04-26 07:00 51.14094 149.85177 31925 ft 390 kts 257°
2026-04-26 07:01 51.12368 149.77001 31959 ft 389 kts 257°
2026-04-26 07:01 51.10648 149.68846 31973 ft 388 kts 257°
2026-04-26 07:02 51.08933 149.60705 31978 ft 388 kts 257°
2026-04-26 07:02 51.07209 149.52580 31988 ft 387 kts 257°
2026-04-26 07:03 51.05487 149.44475 31992 ft 387 kts 257°
2026-04-26 07:03 51.03755 149.36389 31993 ft 386 kts 256°
2026-04-26 07:04 51.02007 149.28321 31996 ft 386 kts 256°
2026-04-26 07:04 51.00264 149.20254 31993 ft 386 kts 256°
2026-04-26 07:05 50.98524 149.12201 31998 ft 385 kts 256°
2026-04-26 07:05 50.96786 149.04167 31988 ft 384 kts 256°
2026-04-26 07:06 50.95041 148.96158 31989 ft 384 kts 256°
2026-04-26 07:06 50.93294 148.88158 31993 ft 384 kts 256°
2026-04-26 07:07 50.91538 148.80172 31996 ft 384 kts 256°
2026-04-26 07:07 50.89771 148.72207 31998 ft 383 kts 256°
2026-04-26 07:08 50.88004 148.64261 32000 ft 382 kts 256°
2026-04-26 07:08 50.86253 148.56382 32001 ft 382 kts 256°
2026-04-26 07:09 50.84483 148.48468 32002 ft 381 kts 256°
2026-04-26 07:09 50.82712 148.40572 32002 ft 380 kts 256°
2026-04-26 07:11 50.78286 148.20930 32005 ft 378 kts 256°
2026-04-26 07:11 50.76512 148.13110 32003 ft 378 kts 256°
2026-04-26 07:12 50.74732 148.05316 31999 ft 377 kts 256°
2026-04-26 07:12 50.72948 147.97545 31996 ft 376 kts 256°
2026-04-26 07:13 50.71171 147.89798 32000 ft 375 kts 256°
2026-04-26 07:13 50.69392 147.82081 32000 ft 373 kts 255°
2026-04-26 07:14 50.67619 147.74397 31992 ft 373 kts 256°
2026-04-26 07:14 50.65837 147.66725 31991 ft 373 kts 255°
2026-04-26 07:15 50.64045 147.59061 31987 ft 373 kts 255°
2026-04-26 07:15 50.62258 147.51407 31985 ft 372 kts 255°
2026-04-26 07:16 50.60466 147.43763 31988 ft 372 kts 255°
2026-04-26 07:16 50.58669 147.36137 31980 ft 372 kts 255°
2026-04-26 07:17 50.56871 147.28517 31981 ft 371 kts 255°
2026-04-26 07:17 50.55073 147.20904 31980 ft 371 kts 255°
2026-04-26 07:18 50.53259 147.13304 31980 ft 371 kts 255°
2026-04-26 07:18 50.51433 147.05714 31980 ft 371 kts 255°
2026-04-26 07:19 50.49616 146.98128 31979 ft 371 kts 255°
2026-04-26 07:19 50.47798 146.90558 31981 ft 370 kts 255°
2026-04-26 07:20 50.45975 146.82994 31981 ft 370 kts 255°
2026-04-26 07:20 50.44149 146.75442 31987 ft 370 kts 255°
2026-04-26 07:21 50.42317 146.67922 31988 ft 369 kts 255°
2026-04-26 07:21 50.40493 146.60426 31997 ft 368 kts 255°
2026-04-26 07:22 50.38680 146.53010 31998 ft 366 kts 255°
2026-04-26 07:22 50.36854 146.45571 31998 ft 365 kts 255°
2026-04-26 07:23 50.35030 146.38164 31998 ft 364 kts 255°
2026-04-26 07:23 50.33209 146.30794 32000 ft 362 kts 255°
2026-04-26 07:24 50.31383 146.23469 32000 ft 361 kts 255°
2026-04-26 07:24 50.29564 146.16176 31998 ft 359 kts 255°
2026-04-26 07:25 50.27760 146.08906 31996 ft 358 kts 255°
2026-04-26 07:25 50.25958 146.01659 31991 ft 357 kts 255°
2026-04-26 07:26 50.24138 145.94432 31988 ft 357 kts 255°
2026-04-26 07:26 50.22316 145.87225 31987 ft 357 kts 255°
2026-04-26 07:27 50.20496 145.80030 31982 ft 356 kts 255°
2026-04-26 07:27 50.18667 145.72844 31979 ft 356 kts 255°
2026-04-26 07:28 50.16835 145.65657 31973 ft 357 kts 254°
2026-04-26 07:28 50.15006 145.58466 31972 ft 357 kts 254°
2026-04-26 07:29 50.13169 145.51272 31970 ft 357 kts 254°
2026-04-26 07:29 50.11319 145.44075 31966 ft 358 kts 254°
2026-04-26 07:30 50.09456 145.36861 31963 ft 359 kts 254°
2026-04-26 07:30 50.07592 145.29639 31961 ft 360 kts 253°
2026-04-26 07:31 50.05716 145.22403 31962 ft 361 kts 253°
2026-04-26 07:31 50.03829 145.15163 31962 ft 361 kts 253°
2026-04-26 07:32 50.01939 145.07914 31966 ft 362 kts 253°
2026-04-26 07:32 50.00040 145.00668 31967 ft 362 kts 253°
2026-04-26 07:33 49.98141 144.93433 31987 ft 361 kts 253°
2026-04-26 07:33 49.96241 144.86237 31997 ft 359 kts 253°
2026-04-26 07:34 49.94347 144.79082 31996 ft 358 kts 253°
2026-04-26 07:34 49.92453 144.71950 31990 ft 357 kts 252°
2026-04-26 07:35 49.90560 144.64835 31990 ft 357 kts 252°
2026-04-26 07:35 49.88670 144.57729 31990 ft 356 kts 252°
2026-04-26 07:36 49.86775 144.50635 31982 ft 356 kts 252°
2026-04-26 07:36 49.84869 144.43564 31983 ft 356 kts 252°
2026-04-26 07:37 49.82961 144.36494 31986 ft 356 kts 252°
2026-04-26 07:37 49.81059 144.29418 31982 ft 355 kts 252°
2026-04-26 07:38 49.79154 144.22371 31978 ft 355 kts 252°
2026-04-26 07:38 49.77236 144.15332 31978 ft 355 kts 252°
2026-04-26 07:39 49.75317 144.08315 31972 ft 354 kts 252°
2026-04-26 07:39 49.73391 144.01296 31970 ft 355 kts 252°
2026-04-26 07:40 49.71469 143.94274 31981 ft 355 kts 252°
2026-04-26 07:40 49.69544 143.87259 31981 ft 354 kts 251°
2026-04-26 07:41 49.67618 143.80249 31977 ft 354 kts 252°
2026-04-26 07:41 49.65688 143.73302 31979 ft 355 kts 251°
2026-04-26 07:42 49.63746 143.66314 31970 ft 354 kts 251°
2026-04-26 07:42 49.61803 143.59324 31970 ft 355 kts 251°
2026-04-26 07:43 49.59851 143.52334 31969 ft 355 kts 251°
2026-04-26 07:43 49.58212 143.46477 31971 ft 356 kts 251°
2026-04-26 07:44 49.56242 143.39477 31972 ft 356 kts 251°
2026-04-26 07:44 49.54271 143.32483 31972 ft 356 kts 251°
2026-04-26 07:45 49.52315 143.25537 31978 ft 356 kts 250°
2026-04-26 07:45 49.50334 143.18548 31974 ft 356 kts 250°
2026-04-26 07:46 49.48343 143.11560 31984 ft 357 kts 250°
2026-04-26 07:46 49.46349 143.04578 31982 ft 357 kts 250°
2026-04-26 07:47 49.44357 142.97596 31974 ft 357 kts 250°
2026-04-26 07:47 49.42356 142.90608 31974 ft 357 kts 250°
2026-04-26 07:48 49.40348 142.83623 31974 ft 358 kts 250°
2026-04-26 07:48 49.38331 142.76634 31975 ft 358 kts 250°
2026-04-26 07:49 49.36311 142.69631 31973 ft 359 kts 250°
2026-04-26 07:49 49.34287 142.62645 31974 ft 358 kts 249°
2026-04-26 07:50 49.31246 142.52173 31976 ft 359 kts 249°
2026-04-26 07:50 49.29203 142.45193 31975 ft 359 kts 249°
2026-04-26 07:51 49.27158 142.38218 31980 ft 359 kts 249°
2026-04-26 07:51 49.25116 142.31243 31981 ft 360 kts 249°
2026-04-26 07:52 49.23062 142.24280 31978 ft 359 kts 249°
2026-04-26 07:52 49.20998 142.17327 31977 ft 359 kts 249°
2026-04-26 07:53 49.18950 142.10435 31979 ft 358 kts 249°
2026-04-26 07:53 49.16893 142.03497 31974 ft 358 kts 249°
2026-04-26 07:54 49.14836 141.96556 31976 ft 359 kts 248°
2026-04-26 07:54 49.12770 141.89621 31975 ft 359 kts 248°
2026-04-26 07:55 49.10694 141.82685 31979 ft 359 kts 248°
2026-04-26 07:55 49.08610 141.75755 31976 ft 359 kts 248°
2026-04-26 07:56 49.06520 141.68820 31985 ft 360 kts 248°
2026-04-26 07:56 49.04436 141.61888 31987 ft 360 kts 248°
2026-04-26 07:57 49.02345 141.54969 31994 ft 359 kts 248°
2026-04-26 07:57 49.00249 141.48054 31994 ft 359 kts 248°
2026-04-26 07:58 48.98152 141.41144 31991 ft 360 kts 248°
2026-04-26 07:58 48.96057 141.34233 31989 ft 359 kts 248°
2026-04-26 07:59 48.93956 141.27335 31986 ft 359 kts 248°
2026-04-26 07:59 48.91852 141.20432 31977 ft 359 kts 248°
2026-04-26 08:00 48.89738 141.13550 31977 ft 359 kts 247°
2026-04-26 08:00 48.87628 141.06668 31977 ft 359 kts 247°
2026-04-26 08:01 48.85508 140.99796 31979 ft 359 kts 247°
2026-04-26 08:01 48.83382 140.92932 31977 ft 359 kts 247°
2026-04-26 08:02 48.81259 140.86070 31974 ft 359 kts 246°
2026-04-26 08:02 48.79133 140.79208 31973 ft 359 kts 247°
2026-04-26 08:03 48.76999 140.72349 31975 ft 360 kts 246°
2026-04-26 08:03 48.74849 140.65496 31972 ft 360 kts 246°
2026-04-26 08:04 48.72698 140.58652 31975 ft 360 kts 246°
2026-04-26 08:04 48.70554 140.51805 31976 ft 360 kts 246°
2026-04-26 08:05 48.68409 140.44973 31976 ft 359 kts 246°
2026-04-26 08:05 48.66265 140.38145 31969 ft 359 kts 246°
2026-04-26 08:06 48.64113 140.31323 31970 ft 360 kts 246°
2026-04-26 08:06 48.61953 140.24496 31970 ft 360 kts 246°
2026-04-26 08:07 48.59712 140.17788 31966 ft 361 kts 239°
2026-04-26 08:07 48.56825 140.11554 31967 ft 363 kts 238°
2026-04-26 08:08 48.53917 140.05334 31968 ft 363 kts 238°
2026-04-26 08:08 48.51007 139.99103 31970 ft 364 kts 238°
2026-04-26 08:09 48.49541 139.95972 32080 ft 367 kts 237°
2026-04-26 08:09 48.48059 139.92820 32284 ft 369 kts 237°
2026-04-26 08:09 48.46575 139.89661 32510 ft 370 kts 237°
2026-04-26 08:09 48.45089 139.86495 32751 ft 370 kts 237°
2026-04-26 08:10 48.43603 139.83326 32971 ft 370 kts 237°
2026-04-26 08:10 48.42120 139.80160 33222 ft 370 kts 237°
2026-04-26 08:10 48.40640 139.77000 33449 ft 370 kts 237°
2026-04-26 08:10 48.39155 139.73840 33710 ft 369 kts 237°
2026-04-26 08:11 48.37676 139.70685 33914 ft 370 kts 237°
2026-04-26 08:11 48.36191 139.67523 33970 ft 370 kts 237°
2026-04-26 08:11 48.33219 139.61223 33969 ft 369 kts 237°
2026-04-26 08:12 48.30250 139.54946 33966 ft 368 kts 237°
2026-04-26 08:12 48.27283 139.48679 33971 ft 368 kts 237°
2026-04-26 08:13 48.24316 139.42420 33967 ft 368 kts 237°
2026-04-26 08:13 48.21342 139.36181 33963 ft 367 kts 237°
2026-04-26 08:14 48.18382 139.29986 33962 ft 367 kts 237°
2026-04-26 08:14 48.15412 139.23765 33971 ft 367 kts 237°
2026-04-26 08:15 48.12445 139.17564 33967 ft 366 kts 237°
2026-04-26 08:15 48.09471 139.11387 33971 ft 365 kts 237°
2026-04-26 08:16 48.06496 139.05221 33974 ft 365 kts 237°
2026-04-26 08:16 48.03523 138.99074 33970 ft 364 kts 237°
2026-04-26 08:17 48.00575 138.93000 33964 ft 363 kts 236°
2026-04-26 08:17 47.97609 138.86911 33952 ft 362 kts 236°
2026-04-26 08:18 47.94639 138.80843 33943 ft 362 kts 236°
2026-04-26 08:18 47.91532 138.74492 33951 ft 361 kts 236°
2026-04-26 08:19 47.89063 138.69478 33948 ft 361 kts 236°
2026-04-26 08:19 47.86094 138.63454 33942 ft 360 kts 236°
2026-04-26 08:20 47.83142 138.57453 33947 ft 359 kts 236°
2026-04-26 08:20 47.80183 138.51466 33952 ft 359 kts 236°
2026-04-26 08:21 47.77232 138.45491 33951 ft 358 kts 236°
2026-04-26 08:21 47.74287 138.39535 33944 ft 357 kts 236°
2026-04-26 08:22 47.71338 138.33598 33943 ft 357 kts 236°
2026-04-26 08:22 47.68389 138.27668 33941 ft 356 kts 236°
2026-04-26 08:23 47.65438 138.21759 33943 ft 357 kts 236°
2026-04-26 08:23 47.62489 138.15853 33933 ft 356 kts 236°
2026-04-26 08:24 47.59553 138.09993 33932 ft 356 kts 236°
2026-04-26 08:24 47.56604 138.04117 33931 ft 356 kts 236°
2026-04-26 08:25 47.53653 137.98241 33924 ft 356 kts 236°
2026-04-26 08:25 47.50701 137.92374 33929 ft 355 kts 236°
2026-04-26 08:26 47.47744 137.86502 33933 ft 356 kts 235°
2026-04-26 08:26 47.44786 137.80666 33924 ft 354 kts 235°
2026-04-26 08:27 47.41822 137.74841 33928 ft 355 kts 235°
2026-04-26 08:27 47.38852 137.69018 33927 ft 355 kts 235°
2026-04-26 08:28 47.35888 137.63201 33925 ft 355 kts 235°
2026-04-26 08:28 47.32917 137.57396 33919 ft 354 kts 235°
2026-04-26 08:29 47.29946 137.51602 33926 ft 355 kts 234°
2026-04-26 08:29 47.26970 137.45808 33919 ft 355 kts 234°
2026-04-26 08:30 47.23982 137.40020 33914 ft 355 kts 234°
2026-04-26 08:30 47.20999 137.34243 33920 ft 355 kts 234°
2026-04-26 08:31 47.18003 137.28461 33921 ft 355 kts 234°
2026-04-26 08:31 47.15007 137.22689 33922 ft 355 kts 234°
2026-04-26 08:32 47.12010 137.16917 33929 ft 356 kts 234°
2026-04-26 08:32 47.09003 137.11143 33930 ft 356 kts 234°
2026-04-26 08:33 47.05999 137.05388 33929 ft 355 kts 234°
2026-04-26 08:33 47.02990 136.99643 33927 ft 355 kts 234°
2026-04-26 08:34 46.99975 136.93906 33930 ft 355 kts 233°
2026-04-26 08:34 46.96961 136.88169 33934 ft 355 kts 233°
2026-04-26 08:35 46.93953 136.82434 33933 ft 355 kts 233°
2026-04-26 08:35 46.90946 136.76709 33925 ft 355 kts 233°
2026-04-26 08:36 46.87956 136.71033 33933 ft 356 kts 233°
2026-04-26 08:36 46.84931 136.65319 33931 ft 355 kts 233°
2026-04-26 08:37 46.81886 136.59579 33928 ft 355 kts 233°
2026-04-26 08:37 46.78861 136.53881 33930 ft 356 kts 233°
2026-04-26 08:38 46.75847 136.48232 33924 ft 354 kts 233°
2026-04-26 08:38 46.72814 136.42556 33924 ft 355 kts 233°
2026-04-26 08:39 46.69782 136.36885 33927 ft 355 kts 233°
2026-04-26 08:39 46.66751 136.31202 33931 ft 355 kts 233°
2026-04-26 08:40 46.63720 136.25526 33929 ft 355 kts 233°
2026-04-26 08:40 46.60683 136.19858 33933 ft 355 kts 233°
2026-04-26 08:41 46.57639 136.14210 33935 ft 355 kts 233°
2026-04-26 08:41 46.54591 136.08556 33944 ft 355 kts 233°
2026-04-26 08:42 46.51543 136.02916 33941 ft 355 kts 233°
2026-04-26 08:42 46.48489 135.97277 33940 ft 356 kts 232°
2026-04-26 08:43 46.45443 135.91643 33941 ft 355 kts 233°
2026-04-26 08:43 46.42395 135.86021 33944 ft 355 kts 232°
2026-04-26 08:44 46.39343 135.80409 33933 ft 354 kts 232°
2026-04-26 08:44 46.36284 135.74829 33933 ft 354 kts 232°
2026-04-26 08:45 46.33276 135.69190 33932 ft 354 kts 234°
2026-04-26 08:45 46.30350 135.63460 33926 ft 353 kts 234°
2026-04-26 08:46 46.27423 135.57742 33927 ft 354 kts 234°
2026-04-26 08:46 46.24475 135.52041 33929 ft 355 kts 233°
2026-04-26 08:47 46.21509 135.46342 33931 ft 355 kts 233°
2026-04-26 08:47 46.18546 135.40644 33943 ft 355 kts 233°
2026-04-26 08:48 46.15582 135.34960 33943 ft 355 kts 233°
2026-04-26 08:48 46.12612 135.29289 33943 ft 353 kts 233°
2026-04-26 08:49 46.09655 135.23648 33929 ft 352 kts 233°
2026-04-26 08:49 46.06696 135.18013 33934 ft 353 kts 233°
2026-04-26 08:50 46.03730 135.12390 33951 ft 352 kts 233°
2026-04-26 08:50 46.00768 135.06775 33936 ft 352 kts 233°
2026-04-26 08:51 45.96348 134.98388 33927 ft 353 kts 233°
2026-04-26 08:52 45.93372 134.92773 33927 ft 354 kts 233°
2026-04-26 08:52 45.90248 134.87318 33926 ft 355 kts 225°
2026-04-26 08:53 45.86119 134.83354 33926 ft 360 kts 214°
2026-04-26 08:53 45.81742 134.79830 33928 ft 361 kts 214°
2026-04-26 08:54 45.77366 134.76307 33930 ft 360 kts 214°
2026-04-26 08:54 45.72998 134.72783 33933 ft 360 kts 214°
2026-04-26 08:55 45.68635 134.69258 33934 ft 360 kts 214°
2026-04-26 08:55 45.64263 134.65749 33935 ft 360 kts 214°
2026-04-26 08:56 45.59912 134.62244 33930 ft 359 kts 214°
2026-04-26 08:56 45.55552 134.58738 33931 ft 360 kts 214°
2026-04-26 08:57 45.51184 134.55241 33934 ft 360 kts 214°
2026-04-26 08:57 45.46813 134.51756 33933 ft 360 kts 214°
2026-04-26 08:58 45.42471 134.48287 33933 ft 360 kts 214°
2026-04-26 08:58 45.38062 134.44773 33936 ft 361 kts 214°
2026-04-26 08:59 45.33698 134.41321 33950 ft 361 kts 214°
2026-04-26 08:59 45.29306 134.37845 33942 ft 362 kts 214°
2026-04-26 09:00 45.24915 134.34358 33937 ft 362 kts 214°
2026-04-26 09:00 45.20505 134.30870 33952 ft 363 kts 214°
2026-04-26 09:01 45.16088 134.27390 33951 ft 363 kts 214°
2026-04-26 09:01 45.11672 134.23921 33943 ft 363 kts 214°
2026-04-26 09:02 45.07417 134.20578 33950 ft 364 kts 214°
2026-04-26 09:02 45.03516 134.17502 33949 ft 364 kts 214°
2026-04-26 09:03 44.99689 134.14498 33937 ft 364 kts 214°
2026-04-26 09:03 44.95242 134.11025 33944 ft 365 kts 213°
2026-04-26 09:04 44.90930 134.07666 33946 ft 365 kts 213°
2026-04-26 09:04 44.86480 134.04203 33945 ft 366 kts 213°
2026-04-26 09:05 44.82993 134.01481 33940 ft 366 kts 213°
2026-04-26 09:05 44.77829 133.97294 33948 ft 367 kts 214°
2026-04-26 09:06 44.74179 133.94273 33918 ft 367 kts 214°
2026-04-26 09:06 44.71981 133.92451 33617 ft 365 kts 214°
2026-04-26 09:06 44.69097 133.90084 32999 ft 360 kts 214°
2026-04-26 09:06 44.67643 133.88897 32701 ft 357 kts 214°
2026-04-26 09:07 44.65507 133.87160 32265 ft 353 kts 214°
2026-04-26 09:07 44.63395 133.85443 31828 ft 349 kts 214°
2026-04-26 09:07 44.61309 133.83750 31404 ft 344 kts 214°
2026-04-26 09:07 44.59246 133.82078 30987 ft 341 kts 214°
2026-04-26 09:08 44.57207 133.80420 30576 ft 337 kts 214°
2026-04-26 09:08 44.55195 133.78781 30165 ft 332 kts 213°
2026-04-26 09:08 44.53209 133.77169 29764 ft 328 kts 213°
2026-04-26 09:08 44.51244 133.75580 29371 ft 325 kts 213°
2026-04-26 09:09 44.49297 133.74002 28983 ft 322 kts 213°
2026-04-26 09:09 44.47364 133.72431 28589 ft 321 kts 214°
2026-04-26 09:09 44.45435 133.70869 28211 ft 320 kts 214°
2026-04-26 09:09 44.43511 133.69315 27831 ft 318 kts 214°
2026-04-26 09:10 44.41597 133.67770 27446 ft 317 kts 214°
2026-04-26 09:10 44.39686 133.66229 27076 ft 317 kts 214°
2026-04-26 09:10 44.37781 133.64692 26707 ft 316 kts 214°
2026-04-26 09:10 44.35881 133.63164 26338 ft 314 kts 214°
2026-04-26 09:11 44.33990 133.61646 25977 ft 312 kts 214°
2026-04-26 09:11 44.32117 133.60146 25611 ft 309 kts 214°
2026-04-26 09:11 44.30260 133.58655 25263 ft 307 kts 214°
2026-04-26 09:11 44.28415 133.57169 24923 ft 306 kts 214°
2026-04-26 09:12 44.26574 133.55684 24584 ft 305 kts 214°
2026-04-26 09:12 44.24762 133.54227 24248 ft 304 kts 214°
2026-04-26 09:12 44.22932 133.52760 23907 ft 303 kts 214°
2026-04-26 09:12 44.21102 133.51299 23562 ft 302 kts 214°
2026-04-26 09:13 44.19279 133.49847 23221 ft 301 kts 214°
2026-04-26 09:13 44.17459 133.48402 22875 ft 300 kts 214°
2026-04-26 09:13 44.15648 133.46964 22530 ft 299 kts 214°
2026-04-26 09:13 44.13846 133.45530 22185 ft 298 kts 214°
2026-04-26 09:14 44.12053 133.44101 21835 ft 296 kts 215°
2026-04-26 09:14 44.10271 133.42681 21484 ft 294 kts 214°
2026-04-26 09:14 44.08497 133.41270 21138 ft 293 kts 214°
2026-04-26 09:14 44.06731 133.39863 20790 ft 292 kts 215°
2026-04-26 09:15 44.04972 133.38458 20435 ft 291 kts 214°
2026-04-26 09:15 44.03218 133.37060 20088 ft 290 kts 214°
2026-04-26 09:15 44.01469 133.35669 19732 ft 289 kts 214°
2026-04-26 09:15 43.99727 133.34281 19389 ft 288 kts 214°
2026-04-26 09:16 43.97988 133.32900 19043 ft 287 kts 215°
2026-04-26 09:16 43.96246 133.31520 18693 ft 288 kts 214°
2026-04-26 09:16 43.94508 133.30144 18360 ft 288 kts 215°
2026-04-26 09:16 43.92773 133.28772 18011 ft 287 kts 215°
2026-04-26 09:17 43.91052 133.27411 17675 ft 285 kts 215°
2026-04-26 09:17 43.89379 133.25968 17332 ft 281 kts 221°
2026-04-26 09:17 43.87953 133.24162 16965 ft 276 kts 231°
2026-04-26 09:17 43.86811 133.22043 16631 ft 273 kts 238°
2026-04-26 09:18 43.85750 133.19856 16267 ft 274 kts 238°
2026-04-26 09:18 43.84688 133.17678 15931 ft 272 kts 238°
2026-04-26 09:18 43.83627 133.15513 15591 ft 271 kts 237°
2026-04-26 09:18 43.82569 133.13361 15250 ft 270 kts 237°
2026-04-26 09:19 43.81515 133.11217 14909 ft 269 kts 237°
2026-04-26 09:19 43.80469 133.09084 14577 ft 268 kts 237°
2026-04-26 09:19 43.79422 133.06953 14227 ft 267 kts 237°
2026-04-26 09:19 43.78381 133.04835 13885 ft 265 kts 237°
2026-04-26 09:20 43.77343 133.02726 13550 ft 264 kts 237°
2026-04-26 09:20 43.76311 133.00630 13215 ft 264 kts 237°
2026-04-26 09:20 43.75284 132.98542 12879 ft 263 kts 237°
2026-04-26 09:20 43.74257 132.96453 12538 ft 262 kts 237°
2026-04-26 09:21 43.73235 132.94382 12197 ft 260 kts 236°
2026-04-26 09:21 43.72217 132.92316 11857 ft 260 kts 237°
2026-04-26 09:21 43.71198 132.90249 11514 ft 260 kts 237°
2026-04-26 09:21 43.70176 132.88179 11172 ft 262 kts 237°
2026-04-26 09:22 43.69150 132.86107 10823 ft 262 kts 237°
2026-04-26 09:22 43.68116 132.84023 10475 ft 263 kts 236°
2026-04-26 09:22 43.67080 132.81934 10191 ft 263 kts 236°
2026-04-26 09:22 43.66055 132.79867 10120 ft 266 kts 237°
2026-04-26 09:23 43.65077 132.77695 10013 ft 267 kts 240°
2026-04-26 09:23 43.64156 132.75465 9803 ft 269 kts 242°
2026-04-26 09:23 43.63241 132.73183 9320 ft 273 kts 242°
2026-04-26 09:23 43.62323 132.70889 8850 ft 274 kts 242°
2026-04-26 09:24 43.61395 132.68582 8452 ft 274 kts 242°
2026-04-26 09:24 43.60464 132.66291 8069 ft 272 kts 242°
2026-04-26 09:24 43.59543 132.64034 7761 ft 268 kts 239°
2026-04-26 09:24 43.58323 132.62121 7596 ft 268 kts 222°
2026-04-26 09:25 43.56900 132.60443 7469 ft 270 kts 222°
2026-04-26 09:25 43.55470 132.58771 7347 ft 270 kts 222°
2026-04-26 09:25 43.54036 132.57107 7221 ft 269 kts 222°
2026-04-26 09:25 43.52604 132.55445 7098 ft 269 kts 221°
2026-04-26 09:26 43.51173 132.53785 6989 ft 268 kts 222°
2026-04-26 09:26 43.49743 132.52125 7015 ft 269 kts 222°
2026-04-26 09:26 43.48311 132.50466 7011 ft 269 kts 222°
2026-04-26 09:26 43.46880 132.48805 7015 ft 269 kts 222°
2026-04-26 09:27 43.45454 132.47145 6994 ft 269 kts 222°
2026-04-26 09:27 43.44025 132.45488 7011 ft 269 kts 222°
2026-04-26 09:27 43.42593 132.43828 7016 ft 269 kts 222°
2026-04-26 09:27 43.41161 132.42171 7014 ft 269 kts 221°
2026-04-26 09:28 43.39726 132.40512 7007 ft 269 kts 222°
2026-04-26 09:28 43.38317 132.38820 7004 ft 268 kts 227°
2026-04-26 09:28 43.37133 132.36848 7003 ft 267 kts 238°
2026-04-26 09:28 43.36206 132.34645 7003 ft 266 kts 242°
2026-04-26 09:29 43.35310 132.32416 7003 ft 267 kts 242°
2026-04-26 09:29 43.34424 132.30217 7006 ft 267 kts 242°
2026-04-26 09:29 43.33511 132.27960 7008 ft 267 kts 242°
2026-04-26 09:29 43.32606 132.25732 7000 ft 267 kts 242°
2026-04-26 09:30 43.31714 132.23540 7008 ft 267 kts 242°
2026-04-26 09:30 43.30808 132.21318 7006 ft 266 kts 242°
2026-04-26 09:30 43.29905 132.19097 6994 ft 267 kts 242°
2026-04-26 09:30 43.29002 132.16877 6996 ft 266 kts 242°
2026-04-26 09:31 43.28100 132.14663 7006 ft 266 kts 242°
2026-04-26 09:31 43.27193 132.12445 7004 ft 267 kts 242°
2026-04-26 09:31 43.26281 132.10226 7004 ft 267 kts 242°
2026-04-26 09:31 43.25369 132.08008 7001 ft 267 kts 242°
2026-04-26 09:32 43.24459 132.05790 7004 ft 267 kts 242°
2026-04-26 09:32 43.23552 132.03572 6801 ft 266 kts 243°
2026-04-26 09:32 43.22950 132.01218 6215 ft 259 kts 263°
2026-04-26 09:32 43.22982 131.98740 5822 ft 263 kts 281°
2026-04-26 09:33 43.23639 131.96388 5198 ft 264 kts 302°
2026-04-26 09:33 43.24693 131.94363 4666 ft 255 kts 306°
2026-04-26 09:33 43.25701 131.92475 4459 ft 238 kts 306°
2026-04-26 09:33 43.26850 131.90920 4335 ft 225 kts 332°
2026-04-26 09:34 43.28329 131.90458 4213 ft 219 kts
2026-04-26 09:34 43.29758 131.91134 3893 ft 222 kts 35°
2026-04-26 09:34 43.30732 131.92766 3553 ft 221 kts 60°
2026-04-26 09:34 43.31452 131.94553 3209 ft 206 kts 60°
2026-04-26 09:35 43.32128 131.96241 2905 ft 199 kts 60°
2026-04-26 09:35 43.32788 131.97888 2581 ft 196 kts 60°
2026-04-26 09:35 43.33424 131.99479 2279 ft 183 kts 61°
2026-04-26 09:35 43.34007 132.00923 2035 ft 165 kts 63°
2026-04-26 09:36 43.34547 132.02256 1810 ft 156 kts 60°
2026-04-26 09:36 43.35061 132.03522 1616 ft 152 kts 60°
2026-04-26 09:36 43.35580 132.04802 1408 ft 151 kts 60°
2026-04-26 09:36 43.36082 132.06038 1211 ft 150 kts 60°
2026-04-26 09:37 43.36587 132.07284 1014 ft 149 kts 60°
2026-04-26 09:37 43.37090 132.08525 816 ft 148 kts 60°
2026-04-26 09:37 43.37590 132.09760 631 ft 148 kts 60°
2026-04-26 09:37 43.38087 132.10997 421 ft 147 kts 60°
2026-04-26 09:38 43.38582 132.12226 232 ft 147 kts 60°
2026-04-26 09:38 43.39074 132.13447 70 ft 142 kts 60°
2026-04-26 09:38 43.39472 132.14422 64 ft 88 kts 61°
2026-04-26 09:38 43.39711 132.15017 60 ft 52 kts 61°
2026-04-26 09:39 43.39870 132.15407 67 ft 37 kts 60°
2026-04-26 09:39 43.39994 132.15705 64 ft 35 kts 60°
2026-04-26 09:39 43.40098 132.15964 65 ft 29 kts 61°
2026-04-26 09:39 43.40194 132.16204 68 ft 28 kts 60°
2026-04-26 09:40 43.40288 132.16434 69 ft 27 kts 61°
2026-04-26 09:40 43.40379 132.16659 65 ft 27 kts 60°
2026-04-26 09:40 43.40416 132.16862 68 ft 17 kts 138°
2026-04-26 09:40 43.40317 132.16941 66 ft 15 kts 151°
2026-04-26 09:41 43.40225 132.17005 69 ft 14 kts 157°
2026-04-26 09:41 43.40159 132.16941 68 ft 12 kts 242°
2026-04-26 09:41 43.40120 132.16840 69 ft 11 kts 242°
2026-04-26 09:41 43.40083 132.16749 68 ft 10 kts 240°
2026-04-26 09:42 43.40048 132.16665 69 ft 11 kts 241°
2026-04-26 09:42 43.40004 132.16555 64 ft 13 kts 241°
2026-04-26 09:42 43.39966 132.16460 69 ft 7 kts 239°
2026-04-26 09:42 43.39932 132.16461 69 ft 5 kts 152°
2026-04-26 09:43 43.39908 132.16479 69 ft 3 kts 150°
2026-04-26 09:43 43.39897 132.16487 64 ft 0 kts 151°
2026-04-26 09:43 43.39895 132.16489 67 ft 0 kts 151°